Terminal Aerodrome Forecast
Issued by NWS San Angelo, TX

Home | Current Version | Previous Version | Text Only | Print | Product List | Glossary On
Versions: 1 2 3 4 5 6 7 8 9 10 11 12 13 14 15 16 17 18 19 20 21 22 23 24 25 26 27 28 29 30 31 32
000
FTUS44 KSJT 041500 AAD
TAFABI
TAF AMD
KABI 041509Z 0415/0512 35011G17KT 1/4SM -RA FG VV003
     FM041700 01017G25KT 4SM -RA BR OVC005
     FM042100 01022G31KT 3SM -FZRAPL BR OVC004
     FM050300 01018G28KT 2SM -SNPL BR OVC004
     FM050700 36013G20KT 6SM BR BKN008=

USA.gov is the U.S. government's official web portal to all federal, state and local government web resources and services.